Regional Weather Roundup
Issued by NWS Boston, MA

Home | Current Version | Previous Version | Text Only | Print | Product List | Glossary On
Versions: 1 2 3 4 5 6 7 8 9 10 11 12 13 14 15 16 17 18 19 20 21 22 23 24 25 26 27 28 29 30 31 32 33 34 35 36 37 38 39 40 41 42 43 44 45 46 47 48 49 50
000
ASUS41 KBOX 020910
RWRBOX

REGIONAL WEATHER ROUNDUP
NATIONAL WEATHER SERVICE TAUNTON MA
500 AM EDT THU OCT 02 2014

NOTE:  "FAIR" INDICATES FEW OR NO CLOUDS BELOW 12,000 FEET WITH NO
SIGNIFICANT WEATHER AND/OR OBSTRUCTIONS TO VISIBILITY.  THE FOLLOWING
OBSERVATION LOCATIONS DO NOT REPORT PRESENT WEATHER...PROVINCETOWN...
SMITHFIELD...BLOCK ISLAND...KEENE...AND OXFORD.

MAZALL-021000-
EASTERN MASSACHUSETTS

CITY           SKY/WX    TMP DP  RH WIND       PRES   REMARKS
BOSTON         CLOUDY    55  54  96 NE22      30.13R
BEVERLY        CLOUDY    56  53  90 NE13G20   30.13R
LAWRENCE       LGT RAIN  55  53  93 NE9       30.16R
BEDFORD        LGT RAIN  55  54  96 NE9       30.12R
BLUE HILL        N/A     54  54 100 NE15G28   30.10R
NORWOOD        CLOUDY    57  55  93 N10G18    30.11R
MARSHFIELD     NOT AVBL
PLYMOUTH       RAIN      58  57  97 NE17G24   30.08R FOG
TAUNTON        LGT RAIN  58  56  93 N7        30.08R
NEW BEDFORD    LGT RAIN  58  57  97 N12G18    30.05R FOG
$$

MAZALL-021000-
CAPE COD AND THE ISLANDS

CITY           SKY/WX    TMP DP  RH WIND       PRES   REMARKS
FALMOUTH         N/A     59  57  94 NE16G31   30.05R
HYANNIS        LGT RAIN  60  58  92 NE18      30.03R
CHATHAM        LGT RAIN  59  58  96 NE9G20    30.04
PROVINCETOWN   CLOUDY    59  55  88 NE14G24   30.08R
NANTUCKET      CLOUDY    61  59  93 NE17      30.00R
MARTHAS VNYRD  CLOUDY    60  59  96 NE14G23   30.03R
$$

MAZALL-021000-
CENTRAL AND WESTERN MASSACHUSETTS

CITY           SKY/WX    TMP DP  RH WIND       PRES   REMARKS
WORCESTER      LGT RAIN  52  52 100 NE10G18   30.12R
FITCHBURG      RAIN      56  52  86 VRB6      30.15R FOG
ORANGE         LGT RAIN  55  53  93 N6        30.13R
SPRINGFIELD    DRIZZLE   57  55  94 N5        30.12R
WESTFIELD      CLOUDY    57  54  89 N7        30.12R
NORTH ADAMS    CLOUDY    56  55  97 CALM      30.13R
PITTSFIELD     CLOUDY    55  53  93 N3        30.12R
$$

RIZALL-021000-
RHODE ISLAND

CITY           SKY/WX    TMP DP  RH WIND       PRES   REMARKS
PROVIDENCE     LGT RAIN  57  56  96 N15       30.09R
NEWPORT        LGT RAIN  59  56  89 N15       30.06R FOG
BLOCK ISLAND   CLOUDY    59  55  88 N16G23    30.05R
SMITHFIELD     CLOUDY    55  48  76 NE15      30.09S
WESTERLY       LGT RAIN  58  56  93 N7        30.07R
$$

CTZALL-021000-
CONNECTICUT

CITY           SKY/WX    TMP DP  RH WIND       PRES   REMARKS
BRADLEY INTL   CLOUDY    58  55  90 N8        30.10R
HARTFORD       CLOUDY    58  55  90 VRB7      30.10R
BRIDGEPORT     CLOUDY    59  56  89 N12       30.09R
DANBURY        CLOUDY    57  54  89 CALM      30.12R
GROTON         LGT RAIN  56  56 100 N8        30.06S
NEW HAVEN      CLOUDY    61  55  81 N7        30.09R
CHESTER        NOT AVBL
MERIDEN        CLOUDY    58  55  90 N3        30.10R
WILLIMANTIC    CLOUDY    57  54  89 N6        30.10R
OXFORD         CLOUDY    55  52  88 N9        30.11S
$$

MEZ002-015-021-024-NHZ003-005-008-011-012-014-VTZ005-008-021000-
NORTHERN NEW ENGLAND

CITY           SKY/WX    TMP DP  RH WIND       PRES   REMARKS
PORTLAND ME    CLOUDY    55  50  83 NE10      30.18R
BANGOR ME      CLOUDY    50  46  86 NE7       30.21R FOG
CONCORD NH     CLOUDY    54  52  93 VRB5      30.16S
MANCHESTER NH  LGT RAIN  55  52  89 NE6       30.14R FOG
NASHUA NH      LGT RAIN  55  54  97 NE5       30.16R FOG
PORTSMOUTH NH  LGT RAIN  55  53  93 N8        30.14S FOG
JAFFREY NH     LGT RAIN  53  52  96 CALM      30.15R
KEENE NH       CLOUDY    55  46  71 N3        30.14S
BURLINGTON VT  CLOUDY    56  53  90 NE3       30.15R FOG
MT. WASHINGTON MOCLDY    45  39  81 NE8         N/A
$$

NYZ052-076-021000-
EASTERN NEW YORK

CITY           SKY/WX    TMP DP  RH WIND       PRES   REMARKS
ALBANY         CLOUDY    59  56  89 CALM      30.13S
NEW YORK CITY  CLOUDY    61  55  81 NE13      30.09R
$$

ANZALL-021000-
MARINE OBSERVATIONS

STATION/POSITION TIME  TEMP    WIND        PRES    VSBY  WAVE
                       AIR SEA DIR/SP/G                  HT/PER
                 (UTC) (F)     (DEG/KT/KT) (MB)    (MI)  (FT/S)
BOSTON BUOY      0850   57 59   40/ 19/ 23 1019.3R         9/ 8
BUZZARDS BAY     0800           20/ 22/ 26 1017.0S
NANTUCKET SOUND  0850   61 63   30/ 21/ 25 1015.4R         4/ 4
MASS BAY-STELLWA 0804   58 60   30/ 19/ 23   N/A    1 7/8  9/ 8
ISLE OF SHOALS   0900   55      50/ 23/ 26 1019.7R
S OF BLOCK IS    0808      67                N/A           6/ 6
$$

......................KEY.........................
  SKY/WX - SKY CONDITION/PRESENT WEATHER
  TMP    - TEMPERATURE IN FAHRENHEIT
  DWPT   - DEWPOINT IN FAHRENHEIT
  RH     - RELATIVE HUMIDITY IN PERCENT
  WIND   - DIRECTION AND SPEED IN MPH
  PRES   - MEAN SEA LEVEL PRESSURE IN INCHES OF HG
  WCI    - WIND CHILL INDEX
  VSB    - VISIBILITY IN MILES
  HX     - HEAT INDEX
  TC     - TEMPERATURE IN CELSIUS
  VRB    - VARIABLE WIND DIRECTION
  N/A    - NOT AVAILABLE


USA.gov is the U.S. government's official web portal to all federal, state and local government web resources and services.